EDT,Max TemperatureF,Mean TemperatureF,Min TemperatureF,Max Dew PointF,MeanDew PointF,Min DewpointF,Max Humidity, Mean Humidity, Min Humidity, Max Sea Level PressureIn, Mean Sea Level PressureIn, Min Sea Level PressureIn, Max VisibilityMiles, Mean VisibilityMiles, Min VisibilityMiles, Max Wind SpeedMPH, Mean Wind SpeedMPH, Max Gust SpeedMPH,PrecipitationIn, CloudCover, Events, WindDirDegrees
2012-8-1,93,80,68,70,68,64,96,82,39,29.97,29.94,29.86,10,5,0,7,2,,0.01,3,Fog,262
2012-8-2,93,82,73,71,68,64,91,63,41,30.00,29.91,29.86,10,10,4,13,3,20,0.15,1,Rain-Thunderstorm,228
2012-8-3,90,80,71,73,71,69,94,79,55,30.09,30.01,29.91,10,8,1,34,5,43,1.11,4,Rain-Thunderstorm,212
2012-8-4,86,78,71,75,71,65,97,83,62,30.21,30.14,30.06,10,8,1,14,4,24,0.90,5,Rain-Thunderstorm,140
2012-8-5,89,80,73,72,70,68,93,76,53,30.28,30.19,30.12,10,10,9,14,2,21,0.00,3,,208
2012-8-6,90,81,73,72,71,68,94,82,50,30.18,30.11,30.01,10,9,2,9,4,,0.40,5,Rain-Thunderstorm,187
2012-8-7,82,76,71,73,72,69,100,88,65,30.10,30.05,29.97,10,9,2,10,4,,0.82,6,Rain-Thunderstorm,208
2012-8-8,88,79,72,72,70,68,94,79,61,30.07,30.01,29.97,10,10,10,10,6,,0.04,3,Rain-Thunderstorm,243
2012-8-9,87,78,69,73,68,64,94,84,62,30.01,29.95,29.88,10,8,1,17,5,28,0.95,5,Rain-Thunderstorm,95
2012-8-10,84,76,68,70,68,63,96,81,61,29.92,29.88,29.82,10,8,1,15,7,24,0.00,6,Rain-Thunderstorm,227
2012-8-11,82,74,66,70,67,59,94,78,58,29.97,29.90,29.86,10,9,2,22,6,34,0.40,5,Rain-Thunderstorm,236
2012-8-12,86,75,66,66,61,57,78,60,44,30.03,29.99,29.95,10,10,10,8,4,,0.00,2,,69
2012-8-13,84,76,68,67,62,56,87,62,38,30.06,30.01,29.95,10,10,10,10,2,,0.00,0,,221
2012-8-14,86,77,70,70,65,59,84,66,53,29.99,29.94,29.88,10,10,10,14,6,20,0.00,2,,234
2012-8-15,87,79,72,70,68,63,91,75,51,29.99,29.94,29.91,10,10,8,14,6,18,0.00,3,,250
2012-8-16,87,75,66,65,63,60,84,61,46,30.06,30.02,29.96,10,10,10,7,3,,0.00,1,,54
2012-8-17,86,76,69,69,67,64,87,71,55,30.01,29.92,29.86,10,10,10,9,2,,0.00,1,,331
2012-8-18,82,76,69,70,66,61,91,74,58,29.99,29.91,29.85,10,9,0,33,5,52,0.57,4,Rain-Thunderstorm,37
2012-8-19,78,74,69,70,68,66,100,86,68,29.93,29.89,29.84,10,8,2,9,3,,0.44,7,Rain-Thunderstorm,149
2012-8-20,82,74,66,67,64,60,93,75,49,29.99,29.92,29.88,10,10,3,9,4,,0.08,4,Rain,46
2012-8-21,84,74,66,66,62,58,93,71,47,30.08,30.03,29.97,10,8,1,15,4,16,1.08,4,Rain-Thunderstorm,17
2012-8-22,84,74,66,66,63,61,90,70,52,30.14,30.09,30.05,10,10,10,10,6,,0.00,3,,34
2012-8-23,84,76,68,66,65,64,90,74,51,30.17,30.13,30.08,10,10,10,9,7,,0.00,4,,50
2012-8-24,84,76,68,65,62,56,84,64,42,30.16,30.12,30.08,10,10,10,9,5,,0.00,1,,40
2012-8-25,84,75,66,67,63,61,87,68,47,30.18,30.14,30.09,10,10,10,8,3,,0.00,3,,19
2012-8-26,88,78,68,65,64,61,84,65,43,30.19,30.14,30.09,10,10,10,8,3,,0.00,1,,95
2012-8-27,88,78,69,66,64,62,87,64,44,30.16,30.09,30.03,10,10,9,12,7,17,0.00,1,,50
2012-8-28,82,77,73,73,71,67,94,84,69,30.06,30.02,29.97,10,10,6,8,2,,0.06,6,Rain,255
2012-8-29,84,78,73,73,71,66,94,87,69,30.06,30.01,29.95,10,8,1,14,3,,0.11,5,Rain,266
2012-8-30,82,77,72,73,71,68,93,80,69,30.18,30.12,30.00,10,10,7,8,2,,0.10,4,Rain,203
2012-8-31,90,82,73,72,71,69,96,75,50,30.25,30.19,30.13,10,10,3,10,3,16,0.00,2,,241